Regional Weather Roundup
Issued by NWS

Home | Current Version | Previous Version | Text Only | Print | Product List | Glossary On
Versions: 1 2 3 4 5 6 7 8 9 10 11 12 13 14 15 16 17 18 19 20 21 22 23 24 25 26 27 28 29 30 31 32 33 34 35 36 37 38 39 40 41 42 43 44 45 46 47 48 49 50
000
ASUS45 KCYS 241710
RWRWY

WYOMING REGIONAL WEATHER ROUNDUP
NATIONAL WEATHER SERVICE CHEYENNE WY
1100 AM MDT SUN MAY 24 2015

NOTE:  "FAIR" INDICATES FEW OR NO CLOUDS BELOW 12,000 FEET
WITH NO SIGNIFICANT WEATHER AND/OR OBSTRUCTIONS TO VISIBILITY.

WYZ001-241800-
YELLOWSTONE NATIONAL PARK

CITY           SKY/WX    TMP DP  RH WIND       PRES   REMARKS
LK YELLOWSTONE   N/A     46  30  53 E8        30.05F
W YELLOWSTONE  NOT AVBL

$$
WYZ002>013-054>058-071-098>099-241800-
NORTHERN WYOMING

CITY           SKY/WX    TMP DP  RH WIND       PRES   REMARKS
JACKSON        MOSUNNY   52  39  62 NE12G18   29.96F
CODY           CLOUDY    48  43  81 N13       30.02S
GREYBULL       CLOUDY    56  46  69 NW22G29   29.90F
WORLAND        LGT RAIN  51  46  83 NW10      29.93F
SHERIDAN       RAIN      50  48  93 NW8       29.99S FOG
BUFFALO        RAIN      48  47  96 N14G26    29.98R FOG
GILLETTE       LGT RAIN  52  49  89 NE17      29.92S
HULETT         CLOUDY    54  50  87 NE10G21   29.95S
NEWCASTLE      LGT RAIN  54  50  87 CALM      29.91S

$$
WYZ014>020-022>026-101>103-241800-
CENTRAL WYOMING

CITY           SKY/WX    TMP DP  RH WIND       PRES   REMARKS
BIG PINEY      PTSUNNY   50  37  61 NE8       29.96S
PINEDALE       CLOUDY    46  39  76 W5        29.96R
DUBOIS         DRIZZLE   41  36  81 CALM      29.99S
LANDER         LGT RAIN  44  40  85 NW10      29.96F
RIVERTON       LGT RAIN  46  42  86 NW12      29.97S
CASPER         CLOUDY    51  42  71 NE3       29.90S
DOUGLAS        CLOUDY    53  48  83 S3        29.90R

$$
WYZ021-027>030-104>119-241800-
SOUTHERN WYOMING

CITY           SKY/WX    TMP DP  RH WIND       PRES   REMARKS
EVANSTON       CLOUDY    48  38  68 W7        30.00S
KEMMERER       FAIR      50  37  62 W15G26    29.97S
FORT BRIDGER   CLOUDY    50  41  71 W14       30.00S
ROCK SPRINGS   LGT RAIN  33  32  96 S6        29.98S VSB 1/2 WCI  28
DIXON          LGT SNOW  36  34  94 CALM      30.00S
RAWLINS        CLOUDY    40  35  83 SW5       29.94S
SARATOGA       DRIZZLE   41  39  93 NW3       29.95S
LARAMIE        FAIR      51  35  54 CALM      29.91F
CHEYENNE       PTSUNNY   55  38  52 SE6       29.91S
TORRINGTON     CLOUDY    57  48  72 SE5       29.88R
PINE BLUFFS    FAIR      57  45  62 N6        29.90F

$$


USA.gov is the U.S. government's official web portal to all federal, state and local government web resources and services.